Regional Weather Roundup
Issued by NWS

Home | Current Version | Previous Version | Text Only | Print | Product List | Glossary Off
Versions: 1 2 3 4 5 6 7 8 9 10 11 12 13 14 15 16 17 18 19 20 21 22 23 24 25 26 27 28 29 30 31 32 33 34 35 36 37 38 39 40 41 42 43 44 45 46 47 48 49 50

000
ASUS44 KMEG 041000
RWRTN
TENNESSEE HOURLY STATE WEATHER ROUNDUP
NATIONAL WEATHER SERVICE MEMPHIS TN
500 AM CDT FRI SEP 04 2015

TNZ002-004-019-021-049-052-054-088>092-041100-
WEST TENNESSEE

CITY           SKY/WX    TMP DP  RH WIND       PRES   REMARKS
MEMPHIS INTL   CLEAR     76  71  85 CALM      29.97S
NWS MEMPHIS      N/A     71 N/A N/A MISG        N/A
JACKSON        FOG       69  67  93 CALM      29.97S VSB 1/2
DYERSBURG      CLEAR     72  70  94 CALM      29.98R
UNION CITY     CLEAR    N/A N/A N/A CALM      29.97S
PARIS          CLEAR     66  64  94 CALM      29.99S
LEXINGTON      CLEAR     68  66  94 CALM      29.97F
$$

TNZ008-025-027-028-033-062-065-066-041100-
NORTH MIDDLE TENNESSEE

CITY           SKY/WX    TMP DP  RH WIND       PRES   REMARKS
NASHVILLE      CLEAR     73  67  81 CALM      30.00R
CLARKSVILLE    CLEAR     67  65  93 CALM      29.99R FOG
COOKEVILLE     CLEAR     64  64 100 CALM      30.02S
CROSSVILLE     CLEAR     66  63  90 CALM      30.07S FOG
$$

TNZ061-075-076-078-094-096-097-041100-
SOUTH MIDDLE TENNESSEE

CITY           SKY/WX    TMP DP  RH WIND       PRES   REMARKS
FAYETTEVILLE   CLEAR     68  66  94 CALM      30.01R
TULLAHOMA      CLEAR     68  66  94 CALM      30.03R
WINCHESTER     CLEAR     66  66 100 CALM      30.02R
COLUMBIA       CLEAR    N/A N/A N/A CALM      29.99R
SHELBYVILLE    CLEAR     70  70 100 E3        30.01S
$$

TNZ017-018-042-046-047-041100-
NORTHEAST TENNESSEE

CITY           SKY/WX    TMP DP  RH WIND       PRES   REMARKS
TRI CITIES     PTCLDY    65  64  97 CALM      30.06R FOG
ELIZABETHTON   SUNNY     63  63 100 CALM      30.07R
$$

TNZ012-013-036-069-073-074-041100-
CENTRAL EAST TENNESSEE

CITY           SKY/WX    TMP DP  RH WIND       PRES   REMARKS
KNOXVILLE      CLEAR     68  68 100 CALM      30.01R
OAK RIDGE      CLEAR     69  66  90 CALM      30.04R
GATLINBURG     SUNNY     64  63  94 CALM      30.03R
$$

TNZ083-085-099-041100-
SOUTHEAST TENNESSEE

CITY           SKY/WX    TMP DP  RH WIND       PRES   REMARKS
CHATTANOOGA    CLEAR     71  67  87 N5        30.00R
$$

SKY/WX REPORTED AS FAIR MEANS FEW OR NO CLOUDS BELOW
12 THOUSAND FEET.



USA.gov is the U.S. government's official web portal to all federal, state and local government web resources and services.